Flag for U.S.A. Weather past 2 weeks in Roanoke, Virginia, U.S.A.

Now
36 °F

Passing clouds.


Feels Like: 27 °F
Forecast: 28 / 41 °F
Wind: 14 mph from Northwest

Location: Roanoke Regional Airport

Current Time: Mar 28, 2015 at 1:20:22 AM

Latest Report: Mar 28, 2015 at 12:54 AM


Visibility: 10 mi

Pressure: 29.90 "Hg

Humidity: 54%

Dew point: 21 °F

Location of RoanokeLocation

Historic Weather in Roanoke — Graph

°F

Roanoke temperature yesterday

Maximum temperature yesterday: 50 °F (at 12:54 AM)
Minimum temperature yesterday: 38 °F (at 11:54 PM)
Average temperature yesterday: 44 °F

Past Weeks' High & Low Weather Summary

 TemperatureHumidityPressure
High76 °F (Mar 16, 2:54 PM)97% (Mar 19, 9:03 PM)30.58 "Hg (Mar 19, 9:03 PM)
Low34 °F (Mar 19, 8:54 PM)12% (Mar 18, 4:54 PM)29.67 "Hg (Mar 26, 6:54 PM)
Average51 °F53%30.10 "Hg
* Reported Mar 12 11:54 PM — Mar 27 11:54 PM, Roanoke, Weather by CustomWeather, © 2015

Note: Actual official high and low records may vary slightly from our data, if they occured in-between our weather recording intervals... More about our weather records

Advertising

Roanoke weather history for previous 24 hours

 ConditionsComfort  
Time TempWeatherWind HumidityBarometerVisibility
11:54 PM
Fri, Mar 27
38 °FPassing clouds.18 mph51%29.88 "Hg10 mi
10:54 PM39 °FPassing clouds.12 mph53%29.88 "Hg10 mi
9:54 PM40 °FClear.10 mph49%29.86 "Hg10 mi
8:54 PM42 °FPassing clouds.13 mph45%29.84 "Hg10 mi
7:54 PM44 °FBroken clouds.16 mph43%29.80 "Hg10 mi
6:54 PM48 °FOvercast.16 mph39%29.78 "Hg10 mi
5:54 PM49 °FMostly cloudy.6 mph39%29.76 "Hg10 mi
4:54 PM48 °FMostly cloudy.6 mph44%29.75 "Hg10 mi
3:54 PM48 °FMostly cloudy.6 mph48%29.77 "Hg10 mi
2:54 PM46 °FBroken clouds.10 mph54%29.78 "Hg10 mi
1:54 PM45 °FCloudy.9 mph60%29.81 "Hg10 mi
12:54 PM44 °FMostly cloudy.12 mph65%29.82 "Hg10 mi
11:54 AM42 °FMostly cloudy.8 mph76%29.83 "Hg10 mi
10:54 AM41 °FLight rain. Mostly cloudy.5 mph82%29.83 "Hg10 mi
9:54 AM41 °FRain. Overcast.7 mph80%29.84 "Hg6 mi
8:54 AM42 °FLight rain. Mostly cloudy.8 mph82%29.80 "Hg10 mi
7:54 AM43 °FOvercast.6 mph79%29.79 "Hg10 mi
6:54 AM43 °FLight rain. Mostly cloudy.6 mph79%29.77 "Hg10 mi
5:54 AM43 °FLight rain. Overcast.8 mph82%29.77 "Hg10 mi
4:54 AM44 °FLight rain. Overcast.10 mph76%29.75 "Hg10 mi
3:54 AM45 °FLight rain. Overcast.10 mph80%29.78 "Hg9 mi
2:54 AM47 °FLight rain. Mostly cloudy.8 mph86%29.78 "Hg10 mi
1:54 AM49 °FLight rain. Mostly cloudy.12 mph84%29.78 "Hg10 mi
Weather by CustomWeather, © 2015

See weather overviewHow to use our weather pages